User: anonymous   Login
Location: Jabiru
(12.6667°S, 132.8333°E)
Time: 13:42:40
(UTC+09:30)
Language:

KKS-1 - Orbit

View from above orbital plane
View from above orbital plane
View from above satellite
View from above satellite

Ground track
Ground track

The orbit data is extracted from the following two-line orbital elements,

1 33499U 09002H   19111.82662096  .00000101  00000-0  22929-4 0  9991
2 33499  98.3539 308.6757 0009950  37.4226 322.7673 14.75425271550693
Epoch (UTC): 21 April 2019 19:50:20
Eccentricity: 0.0009950
inclination: 98.3539°
perigee height: 637 km
apogee height: 651 km
right ascension of ascending node: 308.6757°
argument of perigee: 37.4226°
revolutions per day: 14.75425271
mean anomaly at epoch: 322.7673°
orbit number at epoch: 55069

The dashed part of the orbit path shows where the satellite is in the earth's shadow,  

DLR